Flag for Germany Weather past 2 weeks in Rotenburg (Wümme), Lower Saxony, Germany

Now
53 °F

Passing clouds.


Feels Like: 52 °F
Forecast: 53 / 72 °F
Wind: 6 mph from Southwest

Location: Bremen

Current Time: May 4, 2015 at 7:02:57 AM

Latest Report: May 4, 2015 at 6:00 AM


Visibility: 19 mi

Pressure: 29.65 "Hg

Humidity: 84%

Dew point: 49 °F

Location of Rotenburg (Wümme)Location

Historic Weather in Rotenburg (Wümme) — Graph

°F

Rotenburg (Wümme) temperature yesterday

Maximum temperature yesterday: 65 °F (at 3:00 PM)
Minimum temperature yesterday: 41 °F (at 1:00 AM)
Average temperature yesterday: 53 °F

Past Weeks' High & Low Weather Summary

 TemperatureHumidityPressure
High66 °F (Apr 24, 6:00 PM)100% (Apr 24, 4:00 AM)30.44 "Hg (Apr 24, 4:00 AM)
Low30 °F (Apr 28, 6:00 AM)37% (Apr 19, 6:00 PM)29.57 "Hg (May 3, 10:00 PM)
Average49 °F73%29.98 "Hg
* Reported Apr 19 6:00 AM — May 4 5:00 AM, Rotenburg (Wümme), Weather by CustomWeather, © 2015

Note: Actual official high and low records may vary slightly from our data, if they occured in-between our weather recording intervals... More about our weather records

Advertising

Rotenburg (Wümme) weather history for previous 24 hours

 ConditionsComfort  
Time TempWeatherWind HumidityBarometerVisibility
5:00 AM
Mon, May 4
55 °FPassing clouds.7 mph83%29.65 "Hg25 mi
4:00 AM54 °FClear.6 mph85%29.62 "Hg25 mi
3:00 AM54 °FClear.5 mph92%29.62 "Hg25 mi
2:00 AM56 °FClear.6 mph91%29.60 "Hg22 mi
1:00 AM57 °FPassing clouds.5 mph94%29.59 "Hg16 mi
12:00 AM59 °FOvercast.6 mph94%29.57 "Hg14 mi
10:00 PM
Sun, May 3
57 °FDrizzle. Low clouds.5 mph95%29.57 "Hg5 mi
9:00 PM57 °FLow clouds.6 mph93%29.57 "Hg9 mi
8:00 PM56 °FLight rain. Overcast.6 mph95%29.57 "Hg5 mi
7:00 PM58 °FCool.8 mph86%29.59 "HgN/A
6:00 PM62 °FOvercast.10 mph67%29.58 "Hg16 mi
4:00 PM64 °FOvercast.9 mph56%29.62 "Hg19 mi
3:00 PM65 °FOvercast.9 mph53%29.64 "Hg19 mi
2:00 PM63 °FOvercast.9 mph51%29.67 "Hg19 mi
1:00 PM63 °FScattered clouds.8 mph47%29.68 "Hg19 mi
12:00 PM61 °FScattered clouds.8 mph53%29.72 "Hg19 mi
11:00 AM58 °FPartly sunny.6 mph52%29.74 "Hg19 mi
10:00 AM55 °FPartly sunny.7 mph56%29.76 "Hg19 mi
9:00 AM50 °FOvercast.6 mph61%29.78 "Hg19 mi
8:00 AM46 °FOvercast.5 mph68%29.80 "Hg19 mi
7:00 AM43 °FPartly sunny.5 mph75%29.80 "Hg25 mi
Weather by CustomWeather, © 2015

See weather overviewHow to use our weather pages